This is the latest recevied weather packets stored in our database for station/object IU1TLK-10. If no packets are shown the sender has not sent any weather packets the latest 10 day(s).
| Time | Temp. | Humidity | Pressure | Rain* | Wind** | Luminosity | Snow |
|---|---|---|---|---|---|---|---|
| 1777605505 | 9.44° C | 64% | 1027.5 hPa | - | - | - | - |
| 1777603707 | 9.44° C | 64% | 1027.4 hPa | - | - | - | - |
| 1777601907 | 9.44° C | 63% | 1027.5 hPa | - | - | - | - |
| 1777600107 | 10° C | 63% | 1027.4 hPa | - | - | - | - |
| 1777598307 | 10° C | 63% | 1027.2 hPa | - | - | - | - |
| 1777596507 | 10° C | 64% | 1027.3 hPa | - | - | - | - |
| 1777594706 | 9.44° C | 65% | 1027.4 hPa | - | - | - | - |
| 1777592905 | 10° C | 63% | 1027.1 hPa | - | - | - | - |
| 1777591105 | 10.56° C | 62% | 1027.1 hPa | - | - | - | - |
| 1777589305 | 10.56° C | 63% | 1026.9 hPa | - | - | - | - |
| 1777587505 | 10.56° C | 64% | 1027.1 hPa | - | - | - | - |
| 1777585705 | 10.56° C | 63% | 1027.1 hPa | - | - | - | - |
| 1777583905 | 11.11° C | 61% | 1026.9 hPa | - | - | - | - |
| 1777582106 | 11.67° C | 59% | 1026.8 hPa | - | - | - | - |
| 1777580306 | 11.67° C | 57% | 1026.4 hPa | - | - | - | - |
| 1777578506 | 12.22° C | 56% | 1026.2 hPa | - | - | - | - |
| 1777576706 | 12.78° C | 55% | 1026 hPa | - | - | - | - |
| 1777574906 | 12.78° C | 55% | 1025.6 hPa | - | - | - | - |
| 1777573106 | 12.78° C | 55% | 1025.3 hPa | - | - | - | - |
| 1777571305 | 12.78° C | 55% | 1025.1 hPa | - | - | - | - |
| 1777569505 | 13.33° C | 53% | 1024.9 hPa | - | - | - | - |
| 1777567705 | 13.89° C | 51% | 1025 hPa | - | - | - | - |
| 1777565905 | 13.89° C | 45% | 1024.9 hPa | - | - | - | - |
| 1777564105 | 14.44° C | 44% | 1025 hPa | - | - | - | - |
| 1777562304 | 14.44° C | 44% | 1025.1 hPa | - | - | - | - |
* Rain since midnight (hover to see other rain measurements)
** Current wind speed in m/s (hover to see current wind gust speed)